Terminal Aerodrome Forecast
Issued by NWS

Home | Current Version | Previous Version | Text Only | Print | Product List | Glossary On
Versions: 1 2 3 4 5 6 7 8 9 10 11 12
000
FTAK31 PAJN 270500
TAFAWG
TAF
PAWG 270530Z 2706/2806 10006KT P6SM VCSH SCT030 BKN045
      TEMPO 2706/2710 6SM -SHRA BR FEW015 BKN030 OVC040
     FM271100 VRB03KT P6SM VCSH SCT025 OVC045
     FM271500 VRB03KT P6SM FEW005 BKN045
     FM272000 23005KT P6SM BKN045
      AMD LTD TO CLD VIS AND WIND 2706/2715=

USA.gov is the U.S. government's official web portal to all federal, state and local government web resources and services.